Tracking 32523 objects as of 12-Dec-2025
HD Live streaming from Space Station
objects crossing your sky now

STARLINK-4474

Track STARLINK-4474 now!
10-day predictions
STARLINK-4474 is classified as:


NORAD ID: 53547
Int'l Code: 2022-101W
Perigee: 546.0 km
Apogee: 547.9 km
Inclination: 53.2 °
Period: 95.4 minutes
Semi major axis: 6917 km
RCS: Unknown
Launch date: August 19, 2022
Source: United States (US)
Launch site: AIR FORCE EASTERN TEST RANGE (AFETR)
Your satellite tracking list
Your tracking list is empty




NASA's NSSDC Master Catalog

Two Line Element Set (TLE):
1 53547U 22101W   25346.32149568 -.00000398  00000-0 -69037-5 0  9990
2 53547  53.2138  96.3282 0001380 106.4903 253.6241 15.08832563183784
Source of the keplerian elements: AFSPC